This demonstration page uses our WeatherBlox Daily Observations layout. Learn more.

Left ArrowRight Arrow

44.8408, -93.29828

Hourly Observations for August 19, 2019

Temp ( °F °C ) Dew Point ( °F °C ) Humidity (%) Winds ( mph kmh ) Pressure ( in mb ) Visibility ( mi km ) Precip ( " mm )
12:53 am 00:53 Clear 62 16.7 52 11.1 70 70 SSW 3 6 29.95 1014 10 16 0.00 0.00
1:53 am 01:53 Clear 61 16.1 53 11.7 75 75 Calm 29.96 1014 10 16 0.00 0.00
2:53 am 02:53 Clear 60 15.6 53 11.7 78 78 Calm 29.96 1015 10 16 0.00 0.00
3:53 am 03:53 Clear 59 15 54 12.2 83 83 Calm 29.97 1015 10 16 0.00 0.00
4:53 am 04:53 Clear 59 15 53 11.7 81 81 SSW 3 6 29.98 1015 10 16 0.00 0.00
5:53 am 05:53 Clear 59 15 52 11.1 78 78 SSW 3 6 29.99 1016 10 16 0.00 0.00
6:53 am 06:53 Sunny 58 14.4 52 11.1 81 81 SSW 3 6 30.01 1016 10 16 0.00 0.00
7:53 am 07:53 Sunny 60 15.6 53 11.7 78 78 Calm 30.01 1016 10 16 0.00 0.00
8:53 am 08:53 Sunny 65 18.3 54 12.2 68 68 S 3 6 30.00 1016 10 16 0.00 0.00
9:53 am 09:53 Sunny 69 20.6 53 11.7 57 57 S 5 7 30.01 1016 10 16 0.00 0.00
10:53 am 10:53 Mostly Sunny 73 22.8 52 11.1 48 48 VRB 6 9 30.01 1016 10 16 0.00 0.00
11:53 am 11:53 Mostly Sunny 75 23.9 54 12.2 48 48 S 8 13 30.01 1016 10 16 0.00 0.00
12:53 pm 12:53 Mostly Sunny 76 24.4 53 11.7 45 45 SW 7 11 30.01 1016 10 16 0.00 0.00
1:53 pm 13:53 Mostly Sunny 78 25.6 55 12.8 45 45 VRB 5 7 30.00 1016 10 16 0.00 0.00
2:53 pm 14:53 Mostly Sunny 79 26.1 56 13.3 45 45 S 9 15 29.98 1015 10 16 0.00 0.00
3:53 pm 15:53 Mostly Sunny 80 26.7 55 12.8 42 42 SSW 6 9 29.97 1015 10 16 0.00 0.00
4:53 pm 16:53 Mostly Sunny 81 27.2 56 13.3 42 42 SW 12 19 29.97 1015 10 16 0.00 0.00
5:53 pm 17:53 Mostly Sunny 81 27.2 58 14.4 45 45 SW 7 11 29.96 1014 10 16 0.00 0.00
6:53 pm 18:53 Sunny 80 26.7 58 14.4 47 47 SSW 9 15 29.95 1014 10 16 0.00 0.00
7:53 pm 19:53 Sunny 79 26.1 59 15 50 50 SSW 6 9 29.96 1014 10 16 0.00 0.00
8:53 pm 20:53 Clear 77 25 61 16.1 58 58 SSW 6 9 29.97 1015 10 16 0.00 0.00
9:53 pm 21:53 Clear 73 22.8 61 16.1 66 66 SSE 5 7 29.98 1015 10 16 0.00 0.00
10:53 pm 22:53 Clear 71 21.7 62 16.7 73 73 SSE 7 11 29.99 1016 10 16 0.00 0.00
11:53 pm 23:53 Clear 70 21.1 62 16.7 76 76 S 5 7 29.99 1016 10 16 0.00 0.00

Powered by AerisWeather